ContactaLinksHome
    
DADES METEOROLÒGIQUES DE LES ÚLTIMES 24 HORES
 

Taire  Temperatura de l'aire  (ºC)
HumitatR  Humitat relativa de l'aire (%)
Pluja  Litres de pluja per metre cuadrat caiguts en 10 minuts (l/m²)
VelVent  Velocitat mitjana del vent (m/s)
DirVent  Direcció del vent  (º)
RadSolar  Intensitat de Radiació solar (w/m²)
PressAtm  Pressió atmosfèrica (mb)
  ***Dades sense verificar
DataTaireHumitatRPlujaVelVentDirVentRadSolarPressAtm
09/12/2019 20:20:0012.7500,03.234201021
09/12/2019 20:10:0012.9500,03.233601021
09/12/2019 20:00:0013.2490,03.633201021
09/12/2019 19:50:0013.3480,04.330801021
09/12/2019 19:40:0013.3480,05.032601021
09/12/2019 19:30:0014.0480,04.432801021
09/12/2019 19:20:0015.0440,02.630901020
09/12/2019 19:10:0015.2370,02.234501020
09/12/2019 19:00:0015.2360,03.9901020
09/12/2019 18:50:0015.1400,05.11301019
09/12/2019 18:40:0014.5470,04.835001020
09/12/2019 18:30:0014.2470,04.334201020
09/12/2019 18:20:0014.3480,03.735201020
09/12/2019 18:10:0014.6470,04.134601020
09/12/2019 18:00:0014.8460,04.334501019
09/12/2019 17:50:0014.9460,04.633901019
09/12/2019 17:40:0015.2460,05.133301019
09/12/2019 17:30:0015.3450,05.532301019
09/12/2019 17:20:0015.4450,04.232101019
09/12/2019 17:10:0015.5440,04.231801018
09/12/2019 17:00:0015.7450,04.431101018
09/12/2019 16:50:0015.8440,04.631501018
09/12/2019 16:40:0015.9440,04.930801018
09/12/2019 16:30:0015.9440,05.032211018
09/12/2019 16:20:0015.9450,05.331171018
09/12/2019 16:10:0015.7480,04.2322191018
09/12/2019 16:00:0015.8480,02.9302431018
09/12/2019 15:50:0015.9470,03.2303681018
09/12/2019 15:40:0016.0470,03.0281941018
09/12/2019 15:30:0016.0460,03.03061221018
09/12/2019 15:20:0016.1460,04.43201481018
09/12/2019 15:10:0016.3450,04.13211741018
09/12/2019 15:00:0016.6440,03.13231981018
09/12/2019 14:50:0016.8440,02.02652211018
09/12/2019 14:40:0016.5420,02.53202391018
09/12/2019 14:30:0016.4420,04.53272581018
09/12/2019 14:20:0016.4420,04.13462751018
09/12/2019 14:10:0016.4420,03.43432921018
09/12/2019 14:00:0016.3420,04.03253141018
09/12/2019 13:50:0016.2410,04.83453281018
09/12/2019 13:40:0016.3420,03.42883431018
09/12/2019 13:30:0016.0420,04.53083611018
09/12/2019 13:20:0015.9430,04.03243731018
09/12/2019 13:10:0015.8430,03.93423891018
09/12/2019 13:00:0015.6430,04.63114031018
09/12/2019 12:50:0015.4440,04.63424061018
09/12/2019 12:40:0015.2450,05.23464141018
09/12/2019 12:30:0015.0450,03.63604221018
09/12/2019 12:20:0015.2440,03.43334271019
09/12/2019 12:10:0014.9440,03.72874351019
09/12/2019 12:00:0014.6450,03.93164381019
09/12/2019 11:50:0014.4460,03.63294431019
09/12/2019 11:40:0014.0470,03.03294401019
09/12/2019 11:30:0013.7490,02.43414351019
09/12/2019 11:20:0013.3500,03.33344351019
09/12/2019 11:10:0013.0510,03.03444301019
09/12/2019 11:00:0012.8510,03.23524191019
09/12/2019 10:50:0012.9510,02.564141020
09/12/2019 10:40:0012.7520,02.43194061020
09/12/2019 10:30:0012.6550,02.683981020
09/12/2019 10:20:0012.2550,02.93173881020
09/12/2019 10:10:0012.1560,03.53273791020
09/12/2019 10:00:0012.1570,02.62723641020
09/12/2019 9:50:0011.9590,02.33193471020
09/12/2019 9:40:0011.8590,02.42543381020
09/12/2019 9:30:0011.6600,02.53083221020
09/12/2019 9:20:0011.2620,02.73273021019
09/12/2019 9:10:0010.9620,03.13382801019
09/12/2019 9:00:0011.0620,03.33112551020
09/12/2019 8:50:0011.0620,02.62992311020
09/12/2019 8:40:0010.8640,02.63112061019
09/12/2019 8:30:0010.5670,02.82951841019
09/12/2019 8:20:0010.0690,02.32991601019
09/12/2019 8:10:009.7710,03.22711331019
09/12/2019 8:00:009.3720,02.52881071019
09/12/2019 7:50:009.7720,03.5258821019
09/12/2019 7:40:0010.1700,03.1247581019
09/12/2019 7:30:0010.1710,01.3262371019
09/12/2019 7:20:0010.0720,02.0276171019
09/12/2019 7:10:009.9710,02.032541019
09/12/2019 7:00:0010.3710,02.833401019
09/12/2019 6:50:0010.3710,03.432101019
09/12/2019 6:40:0010.3710,02.730101018
09/12/2019 6:30:0010.4710,02.726701018
09/12/2019 6:20:0010.4730,03.930501018
09/12/2019 6:10:0010.2730,02.929901018
09/12/2019 6:00:0010.4720,02.531701018
09/12/2019 5:50:0010.4720,04.132201018
09/12/2019 5:40:0010.0730,03.732201018
09/12/2019 5:30:0010.3730,04.532501018
09/12/2019 5:20:0010.3710,02.534401018
09/12/2019 5:10:0010.3710,02.734301018
09/12/2019 5:00:0010.3710,02.833801018
09/12/2019 4:50:0010.5710,02.933501018
09/12/2019 4:40:0010.7700,02.730401018
09/12/2019 4:30:0010.8700,04.630801018
09/12/2019 4:20:0010.8690,04.833001018
09/12/2019 4:10:0010.7690,05.232601018
09/12/2019 4:00:0010.6690,06.231401018
09/12/2019 3:50:0010.6690,06.432501018
09/12/2019 3:40:0010.5690,05.830701018
09/12/2019 3:30:0010.5680,05.433301018
09/12/2019 3:20:0010.5680,05.232701018
09/12/2019 3:10:0010.6680,05.131701019
09/12/2019 3:00:0010.6680,05.232101019
09/12/2019 2:50:0010.6670,04.631901019
09/12/2019 2:40:0010.4680,04.631601019
09/12/2019 2:30:0010.3690,05.130701019
09/12/2019 2:20:0010.2690,05.231801019
09/12/2019 2:10:0010.4690,05.132301019
09/12/2019 2:00:0010.6680,05.433001019
09/12/2019 1:50:0010.7680,05.231601019
09/12/2019 1:40:0010.7670,04.631201019
09/12/2019 1:30:0010.7670,04.131901019
09/12/2019 1:20:0010.7670,04.230601019
09/12/2019 1:10:0010.7680,02.432301019
09/12/2019 1:00:0010.7680,02.432101019
09/12/2019 0:50:0010.8670,03.231001019
09/12/2019 0:40:0010.9670,02.731001019
09/12/2019 0:30:0010.9670,03.130201019
09/12/2019 0:20:0010.9670,02.932001019
09/12/2019 0:10:0010.9670,03.930601019
09/12/2019 0:00:0010.8670,04.633601019
08/12/2019 23:50:0010.8680,04.132401019
08/12/2019 23:40:0010.8680,04.031901019
08/12/2019 23:30:0010.6690,03.831101019
08/12/2019 23:20:0010.4700,03.830401019
08/12/2019 23:10:0010.2700,02.231901019
08/12/2019 23:00:0010.2700,03.732001019
08/12/2019 22:50:0010.2700,04.331901019
08/12/2019 22:40:0010.0700,03.531101019
08/12/2019 22:30:009.9700,04.132601019
08/12/2019 22:20:0010.0700,04.531401019
08/12/2019 22:10:009.9710,03.832001019
08/12/2019 22:00:009.9710,04.130601019
08/12/2019 21:50:009.8710,04.131201019
08/12/2019 21:40:009.8710,04.830201019
08/12/2019 21:30:009.8710,04.031801019
08/12/2019 21:20:009.8720,03.929401019
08/12/2019 21:10:009.8720,03.632001019
08/12/2019 21:00:009.8710,03.032101019
08/12/2019 20:50:009.9710,02.430601019
08/12/2019 20:40:0010.0710,00.730401020
08/12/2019 20:30:0010.0710,00.73601020

ÚLTIMES FOTOS WEBCAM
Imatges del Pont
ÚLTIMES DADES

09/12/2019  
21:20h Local  (20:20 GMT)
 
 Velocitat mitjana del Vent
   3,2 m/s
 Direcció del Vent
   342º
 Humitat Relativa
   50 %
 Temperatura Aparent
   12,7 ºC
 Pluja Acumulada
   0,0 l/m²
      
 Temperatura de l'aigua    N/A
 Alçada d'ona    N/A
 Direcció d'ona    N/A
 Velocitat del corrent    N/A
 Direcció del corrent    N/A